Tracking 31027 objects as of 19-Jul-2025
HD Live streaming from Space Station
objects crossing your sky now

STARLINK-30766

Track STARLINK-30766 now!
10-day predictions
STARLINK-30766 is classified as:


NORAD ID: 58125
Int'l Code: 2023-162H
Perigee: 565.3 km
Apogee: 567.1 km
Inclination: 43.0 °
Period: 95.8 minutes
Semi major axis: 6937 km
RCS: Unknown
Launch date: October 22, 2023
Source: United States (US)
Launch site: AIR FORCE EASTERN TEST RANGE (AFETR)
Your satellite tracking list
DEWASAT-2
Track 1 satellite(s)




NASA's NSSDC Master Catalog

Two Line Element Set (TLE):
1 58125U 23162H   25199.83933126  .00001285  00000-0  11015-3 0  9993
2 58125  43.0032 323.6977 0001288 269.5938  90.4757 15.02534538 97120
Source of the keplerian elements: AFSPC